• In Netherlands
  • List of Countries
  • For 7 days
  • Water Temperature
  • Satellite Maps
  • Weather Map
  • Weather Widgets
  • user-avatar
    Login

    Hourly Weather Mazari Sharif

    Today, 19 February, Sunday

    Time Temperature Precipitation Wind Pressure Humidity
    00:00 -8°C° 0.6 mm 4 mps 658 mmHg 92%
    01:00 -9°C° 0.6 mm 4 mps 659 mmHg 92%
    02:00 -9°C° 0.6 mm 4 mps 659 mmHg 92%
    03:00 -9°C° 0.6 mm 4 mps 659 mmHg 92%
    04:00 -9°C° 0 mm 3 mps 660 mmHg 92%
    05:00 -9°C° 0.2 mm 3 mps 660 mmHg 92%
    06:00 -9°C° 0.2 mm 3 mps 661 mmHg 92%
    07:00 -9°C° 0.2 mm 3 mps 661 mmHg 91%
    08:00 -8°C° 0.1 mm 3 mps 662 mmHg 89%
    09:00 -8°C° 0.1 mm 3 mps 662 mmHg 86%
    10:00 -6°C° 0.1 mm 2 mps 663 mmHg 83%
    11:00 -5°C° 0.1 mm 2 mps 663 mmHg 84%
    12:00 -5°C° 0.1 mm 2 mps 663 mmHg 84%
    13:00 -5°C° 0.1 mm 2 mps 663 mmHg 84%
    14:00 -5°C° 0.1 mm 2 mps 663 mmHg 85%
    15:00 -5°C° 0.1 mm 2 mps 663 mmHg 85%
    16:00 -5°C° 0.1 mm 2 mps 663 mmHg 86%
    17:00 -4°C° 0 mm 1 mps 662 mmHg 88%
    18:00 -7°C° 0 mm 1 mps 662 mmHg 90%
    19:00 -8°C° 0 mm 1 mps 662 mmHg 93%
    20:00 -8°C° 0 mm 1 mps 662 mmHg 92%
    21:00 -8°C° 0 mm 1 mps 662 mmHg 92%
    22:00 -8°C° 0 mm 1 mps 661 mmHg 91%
    23:00 -8°C° 0 mm 1 mps 661 mmHg 91%

    Tomorrow, 20 February, Monday

    Time Temperature Precipitation Wind Pressure Humidity
    00:00 -9°C° 0 mm 2 mps 661 mmHg 90%
    01:00 -9°C° 0 mm 2 mps 660 mmHg 89%
    02:00 -9°C° 0 mm 2 mps 660 mmHg 88%
    03:00 -10°C° 0 mm 2 mps 659 mmHg 87%
    04:00 -9°C° 0 mm 1 mps 659 mmHg 87%
    05:00 -9°C° 0 mm 1 mps 659 mmHg 85%
    06:00 -8°C° 0 mm 1 mps 659 mmHg 84%
    07:00 -8°C° 0 mm 1 mps 659 mmHg 82%
    08:00 -4°C° 0 mm 1 mps 659 mmHg 79%
    09:00 -2°C° 0 mm 1 mps 660 mmHg 76%
    10:00 0°C° 0 mm 1 mps 661 mmHg 72%
    11:00 -1°C° 0 mm 2 mps 660 mmHg 74%
    12:00 -1°C° 0 mm 2 mps 660 mmHg 76%
    13:00 -1°C° 0 mm 2 mps 659 mmHg 79%
    14:00 -1°C° 0 mm 2 mps 659 mmHg 79%
    15:00 +1°C° 0 mm 1 mps 659 mmHg 80%
    16:00 +1°C° 0 mm 1 mps 658 mmHg 81%
    17:00 -1°C° 0 mm 1 mps 658 mmHg 83%
    18:00 -2°C° 0 mm 1 mps 658 mmHg 86%
    19:00 -5°C° 0 mm 0 mps 657 mmHg 89%
    20:00 -5°C° 0 mm 0 mps 657 mmHg 88%
    21:00 -5°C° 0 mm 0 mps 656 mmHg 88%
    22:00 -5°C° 0 mm 0 mps 656 mmHg 87%
    23:00 -5°C° 0 mm 0 mps 656 mmHg 87%

    Day after tomorrow, 21 February, Tuesday

    Time Temperature Precipitation Wind Pressure Humidity
    00:00 -6°C° 0 mm 1 mps 656 mmHg 86%
    01:00 -6°C° 0 mm 1 mps 655 mmHg 86%
    02:00 -6°C° 0 mm 1 mps 655 mmHg 85%
    03:00 -6°C° 0 mm 1 mps 655 mmHg 83%
    04:00 -6°C° 0 mm 1 mps 654 mmHg 82%
    05:00 -4°C° 0 mm 1 mps 654 mmHg 80%
    06:00 -4°C° 0 mm 1 mps 655 mmHg 79%
    07:00 -3°C° 0 mm 1 mps 655 mmHg 77%
    08:00 -1°C° 0 mm 1 mps 655 mmHg 73%
    09:00 +1°C° 0 mm 1 mps 656 mmHg 70%
    10:00 +2°C° 0 mm 1 mps 656 mmHg 67%
    11:00 +2°C° 0 mm 2 mps 656 mmHg 66%
    12:00 +3°C° 0 mm 2 mps 655 mmHg 64%
    13:00 +3°C° 0 mm 2 mps 655 mmHg 63%
    14:00 +3°C° 0 mm 2 mps 655 mmHg 64%
    15:00 +3°C° 0 mm 2 mps 654 mmHg 66%
    16:00 +3°C° 0 mm 2 mps 654 mmHg 67%
    17:00 +2°C° 0 mm 1 mps 654 mmHg 70%
    18:00 +1°C° 0 mm 1 mps 654 mmHg 72%
    19:00 0°C° 0 mm 1 mps 653 mmHg 75%
    20:00 0°C° 0 mm 1 mps 653 mmHg 73%
    21:00 0°C° 0 mm 1 mps 653 mmHg 72%
    22:00 0°C° 0 mm 1 mps 653 mmHg 70%
    23:00 0°C° 0 mm 1 mps 653 mmHg 68%

    22 February, Wednesday

    Time Temperature Precipitation Wind Pressure Humidity
    00:00 0°C° 0 mm 1 mps 653 mmHg 67%
    01:00 -2°C° 0 mm 2 mps 652 mmHg 65%
    02:00 -2°C° 0 mm 2 mps 652 mmHg 63%
    03:00 -2°C° 0 mm 2 mps 652 mmHg 62%
    04:00 -2°C° 0 mm 2 mps 652 mmHg 60%
    05:00 -2°C° 0 mm 2 mps 652 mmHg 58%
    06:00 -2°C° 0 mm 2 mps 652 mmHg 56%
    07:00 +1°C° 0 mm 1 mps 653 mmHg 54%
    08:00 +2°C° 0 mm 1 mps 653 mmHg 54%
    09:00 +4°C° 0 mm 1 mps 654 mmHg 54%
    10:00 +6°C° 0 mm 1 mps 654 mmHg 54%
    11:00 +7°C° 0 mm 1 mps 654 mmHg 52%
    12:00 +6°C° 0 mm 2 mps 654 mmHg 49%
    13:00 +7°C° 0 mm 2 mps 653 mmHg 46%
    14:00 +7°C° 0 mm 2 mps 653 mmHg 49%
    15:00 +7°C° 0 mm 1 mps 653 mmHg 51%
    16:00 +7°C° 0 mm 1 mps 653 mmHg 54%
    17:00 +5°C° 0 mm 1 mps 653 mmHg 56%
    18:00 +4°C° 0 mm 1 mps 653 mmHg 57%
    19:00 +3°C° 0 mm 1 mps 653 mmHg 59%
    20:00 +3°C° 0 mm 1 mps 654 mmHg 56%
    21:00 +2°C° 0 mm 1 mps 654 mmHg 53%
    22:00 +2°C° 0 mm 1 mps 654 mmHg 50%
    23:00 +2°C° 0 mm 1 mps 654 mmHg 49%

    23 February, Thursday

    Time Temperature Precipitation Wind Pressure Humidity
    00:00 +2°C° 0 mm 1 mps 654 mmHg 47%
    01:00 +1°C° 0 mm 2 mps 654 mmHg 45%
    02:00 +1°C° 0 mm 2 mps 654 mmHg 44%
    03:00 +1°C° 0 mm 2 mps 654 mmHg 43%
    04:00 +1°C° 0 mm 2 mps 654 mmHg 42%
    05:00 +1°C° 0 mm 2 mps 655 mmHg 40%
    06:00 +2°C° 0 mm 2 mps 655 mmHg 39%
    07:00 +2°C° 0 mm 2 mps 656 mmHg 38%
    08:00 +4°C° 0 mm 2 mps 657 mmHg 37%
    09:00 +6°C° 0 mm 2 mps 657 mmHg 37%
    10:00 +8°C° 0 mm 2 mps 658 mmHg 36%
    11:00 +9°C° 0 mm 2 mps 658 mmHg 35%
    12:00 +9°C° 0 mm 2 mps 657 mmHg 34%
    13:00 +10°C° 0 mm 2 mps 657 mmHg 33%
    14:00 +10°C° 0 mm 2 mps 657 mmHg 36%
    15:00 +9°C° 0 mm 2 mps 657 mmHg 39%
    16:00 +9°C° 0 mm 2 mps 657 mmHg 41%
    17:00 +7°C° 0 mm 2 mps 657 mmHg 45%
    18:00 +6°C° 0 mm 2 mps 657 mmHg 49%
    19:00 +5°C° 0 mm 2 mps 657 mmHg 53%
    20:00 +5°C° 0 mm 2 mps 657 mmHg 52%
    21:00 +5°C° 0 mm 2 mps 657 mmHg 50%
    22:00 +5°C° 0 mm 2 mps 657 mmHg 49%
    23:00 +5°C° 0 mm 2 mps 657 mmHg 48%

    24 February, Friday

    Time Temperature Precipitation Wind Pressure Humidity
    00:00 +4°C° 0 mm 2 mps 657 mmHg 47%
    01:00 +4°C° 0 mm 2 mps 657 mmHg 46%
    02:00 +4°C° 0 mm 2 mps 657 mmHg 46%
    03:00 +4°C° 0 mm 2 mps 657 mmHg 45%
    04:00 +4°C° 0 mm 2 mps 657 mmHg 44%
    05:00 +4°C° 0 mm 2 mps 657 mmHg 43%
    06:00 +4°C° 0 mm 2 mps 657 mmHg 41%
    07:00 +4°C° 0 mm 2 mps 658 mmHg 39%
    08:00 +6°C° 0 mm 2 mps 658 mmHg 37%
    09:00 +8°C° 0 mm 2 mps 658 mmHg 34%
    10:00 +11°C° 0 mm 1 mps 659 mmHg 31%
    11:00 +10°C° 0 mm 2 mps 658 mmHg 30%
    12:00 +12°C° 0 mm 2 mps 658 mmHg 30%
    13:00 +13°C° 0 mm 2 mps 658 mmHg 29%
    14:00 +12°C° 0 mm 2 mps 658 mmHg 31%
    15:00 +12°C° 0 mm 1 mps 658 mmHg 32%
    16:00 +12°C° 0 mm 1 mps 658 mmHg 34%
    17:00 +10°C° 0 mm 1 mps 658 mmHg 36%
    18:00 +9°C° 0 mm 1 mps 658 mmHg 37%
    19:00 +8°C° 0 mm 1 mps 658 mmHg 39%
    20:00 +8°C° 0 mm 1 mps 658 mmHg 38%
    21:00 +7°C° 0 mm 1 mps 658 mmHg 38%
    22:00 +7°C° 0 mm 1 mps 658 mmHg 38%
    23:00 +6°C° 0 mm 1 mps 658 mmHg 38%
    Show more